Regional Weather Roundup
Issued by NWS Little Rock, AR

Home | Current Version | Previous Version | Text Only | Print | Product List | Glossary On
Versions: 1 2 3 4 5 6 7 8 9 10 11 12 13 14 15 16 17 18 19 20 21 22 23 24 25 26 27 28 29 30 31 32 33 34 35 36 37 38 39 40 41 42 43 44 45 46 47 48 49 50
000
ASUS44 KLZK 192105
RWRLZK

WEATHER ROUNDUP FOR ARKANSAS
NATIONAL WEATHER SERVICE LITTLE ROCK AR
400 PM CDT SAT AUG 19 2017

NOTE: "FAIR" INDICATES FEW OR NO CLOUDS BELOW 12,000 FEET WITH NO
SIGNIFICANT WEATHER AND/OR OBSTRUCTIONS TO VISIBILITY.

ARZ001-003-010-029-192200-
NORTHWEST ARKANSAS

CITY           SKY/WX    TMP DP  RH WIND       PRES   REMARKS
FAYETTEVILLE   MOSUNNY   90  73  57 SE6       29.98F HX  98
FORT SMITH     SUNNY     95  74  50 CALM      29.92F HX 105
HARRISON       MOSUNNY   91  72  53 CALM      29.99F HX  98
BENTONVILLE    MOSUNNY   91  73  55 CALM      29.99F HX 100
ROGERS         SUNNY     91  73  55 CALM      29.99F HX  99
SILOAM SPGS    MOSUNNY   91  70  49 CALM      29.96F HX  97
HIGHFILL       MOSUNNY   91  74  57 SE3       29.98F HX 100
SPRINGDALE     MOSUNNY   91  73  55 SW8       30.00F HX 100
$$

ARZ004-005-016-192200-
NORTH CENTRAL ARKANSAS

CITY           SKY/WX    TMP DP  RH WIND       PRES   REMARKS
BATESVILLE     MOSUNNY   93  73  52 W3        29.93F HX 102
FLIPPIN        SUNNY     91  72  52 SE5       29.93F HX  98
MTN HOME       CLOUDY    91  74  57 CALM      29.95F HX 100
$$

ARZ040-041-192200-
WEST CENTRAL ARKANSAS

CITY           SKY/WX    TMP DP  RH WIND       PRES   REMARKS
MENA           SUNNY     95  73  49 CALM      29.97F HX 105
MOUNT IDA      MOSUNNY   91  73  55 CALM      29.94F HX  99
$$

ARZ009-017-025-026-028-192200-
NORTHEAST ARKANSAS

CITY           SKY/WX    TMP DP  RH WIND       PRES   REMARKS
JONESBORO      SUNNY     93  74  53 VRB3      29.93F HX 103
NEWPORT        PTSUNNY   92  78  63 E3        29.93F HX 107
WALNUT RIDGE   SUNNY     91  73  55 E7        29.93S HX 100
BLYTHEVILLE    MOSUNNY   92  75  57 E6        29.94F HX 103
$$

ARZ022-023-033-042-044-192200-
CENTRAL ARKANSAS

CITY           SKY/WX    TMP DP  RH WIND       PRES   REMARKS
LITTLE ROCK    MOSUNNY   91  77  63 SE7       29.93F HX 104
N LITTLE ROCK    N/A     92  76  59 CALM      29.94F HX 103
JACKSONVILLE   SUNNY     93  77  59 N3        29.93F HX 106
CONWAY           N/A     93  77  59 CALM      29.92F HX 107
SEARCY         MOSUNNY   94  76  55 SW5       29.94F HX 106
HOT SPRINGS    SUNNY     96  73  47 CALM      29.94F HX 105
RUSSELLVILLE   SUNNY     93  73  52 VRB5      29.93F HX 102
CLINTON        FAIR      93  75  55 VRB5      29.94F HX 104
$$

ARZ036-192200-
EAST ARKANSAS

CITY           SKY/WX    TMP DP  RH WIND       PRES   REMARKS
WEST MEMPHIS   SUNNY     91  77  63 W3        29.93F HX 104
$$

ARZ050-053-066-070-073-192200-
SOUTHWEST ARKANSAS

CITY           SKY/WX    TMP DP  RH WIND       PRES   REMARKS
ARKADELPHIA    FAIR      95  77  55 VRB3      29.93F HX 109
CAMDEN         SUNNY     99  73  44 CALM      29.92F HX 109
TEXARKANA      MOSUNNY   95  74  50 SW9       29.94F HX 105
EL DORADO      PTSUNNY   95  74  50 W7        29.94F HX 105
DE QUEEN       SUNNY     95  77  55 SW8       29.91F HX 109
$$

ARZ056-057-069-192200-
SOUTHEAST ARKANSAS

CITY           SKY/WX    TMP DP  RH WIND       PRES   REMARKS
PINE BLUFF     PTSUNNY   94  74  52 SW7       29.93F HX 104
MONTICELLO     SUNNY     94  74  52 VRB5      29.94F HX 104

$$





USA.gov is the U.S. government's official web portal to all federal, state and local government web resources and services.